Regional Weather Roundup
Issued by NWS Cleveland, OH

Home | Current Version | Previous Version | Graphics & Text | Print | Product List | Glossary On
Versions: 1 2 3 4 5 6 7 8 9 10 11 12 13 14 15 16 17 18 19 20 21 22 23 24 25 26 27 28 29 30 31 32 33 34 35 36 37 38 39 40 41 42 43 44 45 46 47 48 49 50
000
ASUS41 KCLE 191400
RWRCLE
OHIO REGIONAL WEATHER ROUNDUP
NATIONAL WEATHER SERVICE WILMINGTON, OH
1000 AM EDT SAT AUG 19 2017

NOTE: "FAIR" INDICATES FEW OR NO CLOUDS BELOW 12,000 FEET WITH NO
SIGNIFICANT WEATHER AND/OR OBSTRUCTIONS TO VISIBILITY.

OHZ001>008-015>018-024>027-034-035-043-044-191500-
   NORTHWEST OHIO

CITY           SKY/WX    TMP DP  RH WIND       PRES   REMARKS
DEFIANCE       FAIR      69  64  84 W6        29.92S
FINDLAY        FAIR      73  64  73 SW7       29.91S
TOLEDO EXPRESS FAIR      68  65  90 W7        29.91S
TOLEDO EXEC    FAIR      70  65  84 NW8       29.92R
LIMA           FAIR      73  66  78 SW6       29.93S
$$

OHZ009>014-019>023-028>033-038-089-191500-
   NORTHEAST OHIO

CITY           SKY/WX    TMP DP  RH WIND       PRES   REMARKS
CLE-HOPKINS    PTSUNNY   70  65  84 SW8       29.93R
CLE-LAKEFRONT  PTSUNNY   71  66  84 SW7       29.89S
CUY CO. ARPT   PTSUNNY   72  64  78 W8        29.91R
LORAIN-ELYRIA  FAIR      68  61  78 W8        29.92R
ASHTABULA      FAIR      69  66  90 SW8       29.91F
AKRON-CANTON   LGT RAIN  68  62  81 SW10      29.95R
WOOSTER        NOT AVBL
MANSFIELD      CLOUDY    69  65  86 S7        29.94F
YOUNGSTOWN     LGT RAIN  68  64  87 S7        29.92F
$$

OHZ042-051>053-060>062-070>072-077>081-191500-
  SOUTHWEST OHIO

CITY           SKY/WX    TMP DP  RH WIND       PRES   REMARKS
CINC-COVINGTON PTSUNNY   73  70  90 S7        29.96S
CINC-LUNKEN    FAIR      74  69  85 S7        29.96R
HAMILTON       FAIR      77  69  76 SW6       29.96R
DAYTON         NOT AVBL
WRIGHT-PAT AFB MOSUNNY   74  67  77 SW7       29.94R
DAYTON GENERAL FAIR      73  64  73 SW6       29.94F
WILMINGTON     FAIR      75  68  78 SW9       29.95F
$$

OHZ036-037-039>041-045>050-054>059-063>069-073>076-082>088-191500-
  CENTRAL AND SOUTHEAST OHIO

CITY           SKY/WX    TMP DP  RH WIND       PRES   REMARKS
COLUMBUS       FAIR      73  67  81 SW8       29.94R
OSU AIRPORT    FAIR      73  69  87 S7        29.93S
BOLTON FIELD   NOT AVBL
RICKENBACK AFB NOT AVBL
NEWARK         FAIR      72  66  81 SW8       29.94S
MARION         FAIR      72  65  78 CALM      29.94R
LANCASTER      FAIR      75  67  76 SW9       29.95S
ZANESVILLE     FAIR      73  66  78 SW3       29.95F
NEW PHILLY     CLOUDY    69  67  93 SE3       29.96R
$$




USA.gov is the U.S. government's official web portal to all federal, state and local government web resources and services.